Temperature
-1 -1 -1 -1 -1 -1 -0 -0 -0 -0 0 0 0 0 0 0 0 0 0 0 0 1 0 0 1 1 1 1 1 1 1 1 1 2 2 3 3 3 3 3 3 4 4
-1 -1 -1 -1 -1 -1 -1 -1 -1 -1 -1 -0 -0 -0 -1 -1 -0 -0 -0 -0 -0 -0 -0 -0 -0 -0 0 0 0 0 0 1 1 1 2 2 2 3 3 3 3 3 3
-2 -2 -2 -2 -2 -2 -2 -2 -1 -1 -1 -1 -1 -1 -1 -1 -1 -1 -1 -1 -1 -1 -1 -1 -1 -1 -1 -0 -0 -0 -0 -0 0 0 1 1 2 2 2 2 2 2 3
-3 -3 -3 -3 -3 -3 -2 -2 -2 -2 -2 -2 -2 -2 -2 -2 -1 -1 -1 -1 -1 -1 -1 -1 -1 -1 -1 -1 -1 -1 -1 -1 -1 -0 0 1 1 1 1 1 2 2 2
-3 -3 -3 -3 -3 -3 -3 -3 -3 -3 -3 -3 -3 -2 -2 -2 -2 -2 -2 -2 -2 -2 -1 -1 -1 -2 -1 -1 -2 -1 -1 -1 -1 -1 -1 -0 0 1 1 1 1 1 1
-4 -4 -4 -4 -4 -4 -4 -4 -4 -3 -3 -3 -3 -3 -3 -3 -3 -3 -3 -3 -2 -2 -2 -2 -2 -2 -2 -2 -2 -2 -2 -2 -2 -1 -1 -1 -1 -0 -0 -0 0 0 0
-4 -5 -5 -5 -5 -5 -5 -4 -4 -4 -4 -4 -4 -4 -4 -3 -3 -3 -3 -3 -3 -3 -3 -3 -3 -3 -3 -3 -2 -2 -2 -2 -2 -2 -2 -2 -2 -1 -1 -1 -1 -1 -0
-5 -5 -5 -5 -5 -5 -5 -5 -5 -5 -5 -5 -4 -4 -4 -4 -4 -4 -4 -4 -4 -4 -4 -3 -3 -3 -3 -3 -3 -3 -3 -3 -3 -3 -2 -2 -2 -2 -2 -1 -1 -1 -1
-5 -6 -6 -6 -6 -6 -6 -6 -6 -6 -5 -5 -5 -5 -5 -5 -4 -5 -5 -5 -5 -4 -4 -4 -4 -4 -4 -4 -4 -4 -4 -3 -3 -3 -3 -3 -3 -2 -2 -2 -2 -2 -2
-6 -6 -6 -7 -7 -7 -7 -7 -6 -6 -6 -6 -6 -6 -6 -5 -5 -5 -5 -5 -5 -5 -5 -5 -5 -4 -4 -4 -4 -4 -4 -4 -4 -4 -4 -3 -3 -3 -3 -3 -3 -3 -3
-7 -7 -7 -7 -7 -7 -7 -7 -7 -7 -7 -7 -7 -7 -6 -6 -6 -6 -6 -6 -6 -6 -5 -5 -5 -5 -5 -5 -5 -5 -5 -5 -5 -5 -5 -4 -4 -4 -3 -3 -3 -3 -3
-7 -7 -7 -7 -8 -8 -8 -8 -8 -8 -8 -8 -7 -7 -7 -7 -7 -7 -7 -7 -6 -6 -6 -6 -5 -5 -5 -5 -5 -5 -5 -5 -5 -5 -5 -5 -5 -4 -4 -4 -4 -4 -4
-8 -8 -8 -8 -8 -8 -9 -9 -9 -9 -9 -9 -8 -8 -8 -8 -8 -8 -7 -7 -7 -7 -7 -7 -6 -6 -6 -6 -6 -6 -6 -6 -6 -6 -6 -5 -5 -5 -5 -4 -4 -4 -4
-8 -8 -9 -8 -9 -9 -9 -9 -9 -9 -9 -9 -9 -9 -9 -9 -8 -8 -8 -8 -8 -7 -7 -7 -7 -7 -6 -6 -6 -6 -6 -6 -6 -6 -6 -6 -6 -6 -5 -5 -5 -5 -5
-9 -9 -9 -9 -9 -9 -9 -10 -10 -10 -10 -10 -10 -10 -10 -9 -9 -9 -9 -8 -8 -8 -8 -8 -7 -7 -7 -7 -7 -7 -7 -7 -7 -7 -7 -6 -6 -6 -6 -6 -5 -5 -5
-9 -9 -9 -9 -10 -10 -10 -10 -10 -10 -10 -10 -10 -10 -10 -10 -9 -9 -9 -9 -9 -8 -8 -8 -8 -8 -8 -8 -8 -8 -7 -7 -7 -7 -7 -7 -7 -7 -6 -6 -6 -6 -6
-10 -10 -10 -10 -10 -10 -10 -10 -10 -10 -10 -10 -10 -10 -10 -10 -10 -10 -9 -9 -9 -9 -9 -9 -9 -9 -9 -9 -8 -8 -8 -8 -8 -8 -8 -8 -8 -7 -7 -7 -7 -6 -6
-10 -10 -10 -10 -11 -11 -11 -11 -11 -11 -11 -10 -10 -10 -10 -10 -10 -10 -10 -10 -10 -9 -9 -9 -9 -9 -9 -9 -9 -9 -9 -8 -8 -8 -8 -8 -8 -8 -8 -7 -7 -7 -7
-10 -11 -11 -11 -11 -11 -11 -11 -11 -11 -11 -11 -11 -11 -10 -11 -10 -10 -10 -10 -10 -10 -10 -10 -10 -10 -10 -10 -9 -9 -9 -9 -9 -9 -9 -8 -8 -8 -8 -8 -8 -7 -7
-11 -11 -11 -11 -11 -11 -11 -11 -11 -12 -12 -12 -11 -11 -11 -11 -11 -11 -11 -11 -11 -11 -11 -10 -10 -10 -10 -10 -10 -10 -10 -9 -9 -9 -9 -9 -9 -9 -8 -8 -8 -8 -8
-11 -11 -11 -11 -11 -12 -12 -12 -12 -12 -12 -12 -12 -12 -12 -11 -11 -11 -11 -11 -11 -11 -11 -11 -11 -11 -11 -10 -10 -10 -10 -10 -10 -9 -9 -9 -9 -9 -9 -9 -9 -9 -8
-12 -12 -12 -12 -12 -12 -12 -12 -12 -12 -12 -12 -12 -12 -12 -12 -12 -12 -11 -11 -11 -11 -11 -11 -11 -11 -11 -11 -11 -10 -10 -10 -10 -10 -10 -10 -9 -9 -9 -9 -9 -9 -9
-12 -12 -12 -12 -12 -12 -12 -12 -12 -12 -12 -12 -12 -12 -12 -12 -12 -12 -12 -12 -11 -11 -11 -11 -11 -11 -11 -11 -11 -11 -11 -10 -10 -10 -10 -10 -10 -10 -10 -10 -10 -10 -10
-12 -12 -12 -12 -12 -12 -12 -12 -12 -12 -12 -12 -12 -12 -12 -12 -12 -12 -12 -12 -12 -12 -12 -11 -11 -11 -11 -11 -11 -11 -11 -11 -11 -10 -10 -10 -10 -10 -10 -10 -10 -10 -10
-12 -12 -12 -12 -12 -13 -13 -13 -13 -13 -13 -13 -13 -12 -12 -12 -12 -12 -12 -12 -12 -12 -12 -12 -12 -12 -11 -11 -11 -11 -11 -11 -11 -11 -11 -10 -10 -10 -10 -10 -11 -11 -10
-12 -12 -12 -12 -13 -13 -13 -13 -13 -13 -13 -13 -13 -13 -13 -13 -13 -12 -12 -12 -12 -12 -12 -12 -12 -12 -12 -12 -12 -11 -11 -11 -11 -11 -11 -11 -11 -11 -11 -11 -11 -11 -11
Wind_Speed
3 3 3 4 4 4 4 4 5 5 6 6 5 5 5 6 6 5 6 6 7 7 7 7 8 7 6 6 5 5 6 6 9 8 5 4 5 6 7 9 11 11 11
3 3 4 4 4 4 4 5 5 5 6 6 5 5 6 6 6 6 7 7 7 8 7 7 8 7 7 6 6 7 7 7 8 10 7 5 6 6 6 6 7 9 10
3 3 4 4 5 5 6 6 5 5 6 6 5 6 6 7 7 7 7 8 8 8 8 8 8 7 8 6 6 7 7 7 7 8 8 6 5 5 5 5 6 6 8
3 3 4 5 5 6 6 6 6 6 6 6 6 6 6 6 7 7 7 8 8 8 8 8 8 8 8 8 7 7 7 7 7 7 8 6 5 5 4 5 6 5 6
4 4 5 6 6 6 6 6 6 6 7 6 6 6 6 6 7 7 7 8 8 8 8 8 8 9 11 9 8 7 7 7 6 7 7 6 6 5 5 5 7 6 5
4 5 6 6 6 6 6 6 6 6 6 6 7 7 7 7 9 11 9 7 8 8 8 8 8 9 11 12 13 12 10 9 8 8 8 8 7 6 5 6 6 6 6
5 6 6 6 6 7 7 7 7 7 6 7 7 7 7 8 11 12 12 8 7 7 7 7 7 8 10 8 10 12 12 13 13 10 10 9 8 7 6 7 7 8 8
5 6 6 6 7 7 7 7 7 6 6 6 7 7 7 8 11 11 11 8 7 7 7 8 8 8 8 8 8 9 9 10 11 10 9 9 9 8 8 9 9 8 6
6 7 7 6 7 7 7 7 7 7 7 6 6 6 7 8 10 10 10 6 6 7 7 7 8 8 11 12 9 9 9 9 10 13 13 12 13 14 11 7 7 7 7
7 7 7 6 7 7 8 8 7 7 7 7 7 6 6 7 9 10 10 5 6 6 6 7 10 10 11 12 9 9 9 8 7 7 8 10 10 10 12 9 8 8 6
7 7 7 6 7 7 7 7 6 6 6 6 7 6 6 7 8 10 10 5 5 6 6 6 7 11 12 11 10 8 10 8 6 6 6 6 6 5 6 7 7 8 8
6 6 7 7 6 6 6 6 6 6 6 6 6 6 5 6 7 8 9 9 8 6 6 6 7 10 11 11 9 9 11 9 6 5 6 6 6 6 5 6 8 8 8
6 6 6 7 6 6 6 6 6 5 5 5 5 5 5 5 5 9 10 11 10 6 6 8 9 9 8 7 9 9 8 6 5 5 6 6 5 5 5 5 5 5 5
5 6 6 6 6 6 5 5 5 5 5 5 5 5 5 5 5 5 5 6 7 7 6 7 8 8 6 6 6 6 4 5 5 5 5 5 4 4 4 4 4 4 4
5 5 5 5 5 5 5 5 6 5 5 5 5 5 6 6 7 9 7 5 5 5 5 3 3 3 3 3 4 4 3 4 4 4 4 4 4 4 4 3 4 4 5
5 5 4 4 5 5 5 6 8 8 10 10 9 9 8 9 11 11 11 11 10 8 5 3 4 4 4 4 4 4 4 4 4 4 4 4 5 5 4 3 3 3 4
5 5 5 5 5 5 5 6 7 8 10 10 11 11 11 12 12 12 11 11 9 7 3 3 3 3 3 3 4 4 4 4 3 4 4 4 4 4 4 3 3 3 3
5 6 6 5 5 5 5 6 6 6 7 7 9 11 12 12 12 11 11 9 5 4 3 3 3 3 3 3 4 4 4 4 3 3 4 4 4 4 4 3 3 3 2
5 4 4 5 5 5 5 5 5 6 6 7 6 8 11 11 11 10 9 4 4 4 3 3 3 3 3 4 4 4 4 4 4 3 3 4 4 3 3 3 2 3 2
5 7 6 5 5 5 5 5 5 5 6 6 6 6 6 6 5 5 5 4 4 4 4 3 3 3 3 3 4 4 4 4 4 3 3 3 3 2 3 2 2 2 2
4 6 7 6 5 5 5 5 5 5 6 6 6 7 8 4 4 5 4 4 4 4 4 4 4 4 4 3 3 4 4 4 3 3 3 2 2 2 2 2 2 2 1
4 4 5 5 5 5 5 5 5 5 6 6 6 7 9 5 4 4 4 4 4 4 4 4 4 4 4 4 4 4 3 3 3 3 2 2 2 1 1 1 1 1 1
4 5 5 5 5 6 6 5 5 5 5 5 6 5 5 5 5 5 5 5 4 4 5 5 4 4 4 5 5 4 3 3 3 3 2 2 2 2 2 2 2 2 2
4 4 5 5 4 4 5 5 5 5 5 5 5 5 5 5 5 5 5 4 4 5 5 5 5 5 6 6 5 5 5 5 4 3 3 2 2 2 2 2 2 2 2
4 4 4 4 4 4 5 5 5 5 5 5 5 5 5 5 5 5 5 4 4 5 5 6 5 6 6 7 6 6 7 7 6 4 3 3 3 2 2 2 2 2 2
4 4 4 4 4 4 4 5 5 5 5 5 5 4 5 5 5 5 4 4 4 4 5 5 6 7 8 7 7 7 7 6 6 5 3 2 2 2 2 2 3 3 2
Wind_Direction
304 302 307 301 293 289 277 272 274 278 274 267 267 267 265 263 252 244 243 236 237 244 245 244 247 247 248 244 240 242 243 245 260 271 257 254 242 252 266 260 260 258 258
304 308 308 309 303 291 284 280 279 277 273 269 267 265 264 262 252 242 244 243 238 244 245 246 250 250 250 248 242 244 247 246 252 268 272 257 250 249 251 254 262 260 260
316 316 317 312 305 292 284 283 281 276 275 273 267 263 262 260 255 248 243 242 239 242 242 241 246 246 250 252 250 250 251 252 250 259 269 264 255 251 253 263 260 262 267
322 316 311 304 297 294 290 285 282 278 275 272 269 264 263 265 261 254 247 245 242 242 239 239 242 241 244 248 252 251 252 252 252 258 265 265 254 246 240 251 262 256 264
322 315 308 306 306 303 301 293 287 285 282 276 273 271 267 264 263 256 248 248 248 245 243 242 243 245 248 248 251 247 246 249 253 258 264 271 257 246 244 249 260 266 264
319 312 313 316 314 310 306 302 297 291 287 281 273 269 268 268 273 273 265 252 247 245 248 247 247 248 254 256 257 257 253 249 249 253 258 261 263 250 247 254 257 264 266
316 314 317 316 314 312 310 310 305 299 297 291 280 272 269 273 275 274 272 263 251 246 245 250 256 257 258 252 260 264 262 261 256 252 254 254 259 254 246 248 248 252 259
318 318 317 316 313 312 310 307 304 300 296 291 288 283 276 278 281 279 278 270 259 252 247 244 247 252 255 254 252 255 254 256 256 252 250 253 257 257 246 249 251 259 270
314 313 313 312 312 312 310 307 304 302 299 293 292 288 283 287 288 283 279 268 260 255 251 248 248 248 258 256 253 254 257 258 263 260 260 262 263 264 263 257 247 248 261
305 306 307 307 306 306 305 305 304 302 300 297 298 294 288 286 289 286 280 265 263 262 256 253 256 256 261 256 246 247 253 258 260 266 268 270 269 266 262 249 239 241 253
302 304 307 308 305 301 303 304 304 303 303 298 293 294 291 290 291 290 285 270 261 265 264 259 255 261 262 259 255 248 255 259 252 252 261 264 265 262 256 251 241 236 239
306 308 309 310 310 313 313 312 310 305 303 301 299 299 295 293 293 290 286 281 278 268 266 264 263 266 264 260 257 257 262 261 252 251 256 260 261 261 258 254 246 241 240
313 312 311 314 315 314 313 313 314 310 305 303 303 304 307 306 298 293 291 290 286 277 270 273 277 271 268 265 266 267 265 259 250 251 256 263 261 259 261 263 257 248 255
308 310 312 314 316 316 313 310 309 308 304 300 300 301 304 306 305 302 292 294 293 287 284 286 289 286 278 276 276 273 263 259 256 255 260 264 261 256 258 258 255 245 251
306 308 311 312 309 311 309 303 304 295 299 300 293 293 299 300 306 313 307 298 292 282 288 282 281 282 276 273 270 266 261 265 260 260 262 266 269 268 268 263 258 246 241
308 309 309 307 307 309 310 309 305 303 308 309 309 304 298 300 307 311 312 311 309 303 291 274 274 271 270 273 273 275 266 263 262 263 262 261 266 269 270 268 268 250 241
291 297 299 301 301 303 305 308 311 312 311 311 315 314 308 311 313 315 316 316 315 316 302 280 275 273 277 279 278 275 274 271 265 262 262 263 267 271 267 267 267 260 244
292 295 299 293 294 296 298 299 301 307 314 313 313 316 316 315 316 318 321 322 318 317 298 291 285 282 279 276 277 279 281 280 270 262 260 261 260 262 262 260 258 254 246
296 296 296 294 292 291 293 295 295 298 300 304 309 314 316 316 316 320 323 315 304 302 298 295 289 285 284 282 280 278 276 273 271 267 262 260 257 249 251 247 248 259 251
295 301 307 301 296 295 293 293 294 294 297 301 304 307 312 314 310 314 316 309 308 308 305 301 297 293 288 284 284 281 277 276 276 270 267 264 257 247 246 243 236 243 244
293 298 306 305 297 292 289 288 289 290 292 295 296 303 315 309 303 303 303 304 304 303 302 301 299 299 295 289 283 279 279 282 281 277 274 270 261 259 262 256 248 238 238
291 294 295 294 296 294 291 287 286 289 291 295 300 306 317 313 304 302 302 302 300 297 295 295 294 293 290 288 286 282 278 276 276 270 263 265 268 271 268 254 249 235 218
292 294 297 297 297 301 305 303 300 296 295 295 299 304 309 306 302 301 300 302 300 298 294 290 290 293 293 291 288 277 273 269 268 258 251 251 257 258 255 248 240 235 233
294 292 292 296 299 299 300 301 300 299 299 299 299 299 300 301 299 298 299 300 300 298 297 296 293 295 298 298 296 292 286 285 278 258 237 226 232 243 242 244 246 242 234
298 295 294 293 296 297 298 300 300 299 300 300 299 299 300 300 298 297 298 297 298 299 299 298 294 293 293 293 293 293 296 297 294 280 244 220 222 233 235 229 232 226 224
303 301 300 297 294 295 296 298 299 300 299 298 296 295 296 296 296 297 297 296 298 299 298 297 297 297 296 292 292 298 304 303 301 297 273 223 216 228 230 228 225 219 205
Height
1479 1477 1476 1475 1474 1472 1471 1470 1470 1469 1469 1468 1468 1468 1467 1468 1468 1468 1468 1470 1470 1471 1472 1472 1473 1474 1475 1476 1477 1478 1478 1479 1477 1474 1477 1477 1478 1478 1479 1479 1479 1480 1480
1475 1473 1472 1471 1469 1468 1466 1466 1465 1465 1464 1463 1463 1463 1463 1463 1462 1462 1462 1464 1464 1464 1465 1466 1467 1468 1468 1469 1470 1470 1471 1472 1472 1469 1469 1471 1471 1472 1472 1472 1472 1473 1473
1472 1470 1468 1467 1465 1463 1462 1461 1460 1460 1459 1458 1458 1457 1457 1457 1456 1456 1457 1457 1457 1457 1459 1459 1460 1461 1461 1462 1463 1463 1464 1465 1465 1464 1462 1464 1464 1465 1465 1465 1466 1466 1466
1468 1466 1465 1463 1461 1459 1458 1456 1455 1454 1453 1452 1451 1450 1450 1450 1450 1450 1450 1450 1450 1451 1452 1452 1453 1454 1455 1456 1456 1456 1457 1458 1458 1457 1456 1456 1457 1458 1458 1458 1458 1458 1459
1465 1463 1461 1459 1457 1455 1453 1451 1450 1449 1447 1446 1445 1444 1443 1443 1443 1443 1443 1443 1443 1443 1444 1445 1446 1447 1448 1449 1449 1450 1450 1451 1451 1450 1450 1449 1449 1450 1451 1451 1451 1451 1451
1461 1459 1456 1454 1452 1450 1448 1446 1444 1443 1441 1440 1438 1437 1436 1436 1436 1436 1436 1436 1436 1436 1436 1437 1438 1439 1440 1441 1442 1442 1443 1443 1443 1443 1443 1442 1442 1444 1444 1445 1445 1445 1443
1457 1455 1452 1450 1448 1445 1443 1441 1438 1437 1435 1433 1431 1430 1429 1429 1429 1429 1429 1430 1429 1429 1429 1430 1431 1431 1433 1433 1433 1434 1435 1435 1436 1437 1435 1434 1436 1437 1438 1438 1437 1437 1436
1454 1451 1449 1446 1443 1441 1438 1436 1433 1431 1429 1427 1425 1424 1423 1422 1422 1422 1423 1423 1422 1422 1422 1423 1424 1424 1425 1425 1425 1426 1426 1427 1428 1428 1428 1428 1429 1430 1431 1432 1431 1431 1431
1451 1448 1445 1442 1439 1437 1434 1431 1428 1426 1423 1421 1419 1418 1416 1415 1415 1415 1416 1416 1415 1414 1415 1416 1416 1416 1417 1419 1419 1418 1418 1419 1420 1420 1421 1421 1422 1423 1424 1425 1424 1424 1422
1447 1444 1441 1439 1436 1433 1430 1427 1424 1421 1418 1416 1414 1412 1411 1409 1409 1409 1410 1410 1409 1408 1409 1409 1410 1410 1410 1411 1411 1411 1410 1411 1412 1412 1412 1413 1413 1414 1415 1416 1417 1417 1415
1443 1441 1438 1435 1432 1429 1426 1423 1420 1417 1415 1412 1410 1408 1406 1404 1403 1404 1404 1404 1403 1402 1402 1402 1403 1403 1404 1404 1404 1404 1404 1405 1405 1405 1405 1405 1405 1405 1406 1407 1408 1409 1409
1440 1437 1434 1431 1428 1425 1422 1419 1417 1414 1411 1408 1405 1403 1401 1400 1399 1399 1399 1399 1399 1397 1396 1396 1396 1397 1397 1397 1398 1397 1398 1399 1398 1398 1398 1397 1397 1397 1398 1399 1400 1400 1401
1436 1433 1430 1427 1425 1422 1419 1416 1413 1410 1407 1405 1402 1400 1398 1397 1396 1395 1394 1394 1393 1392 1391 1391 1391 1391 1391 1391 1391 1391 1392 1392 1391 1391 1391 1390 1390 1390 1390 1391 1391 1392 1392
1432 1429 1427 1424 1421 1418 1416 1413 1410 1407 1405 1402 1400 1397 1395 1394 1392 1391 1390 1389 1388 1387 1386 1386 1386 1385 1385 1385 1385 1385 1385 1385 1385 1385 1384 1384 1384 1384 1384 1384 1384 1384 1384
1428 1426 1423 1421 1418 1415 1412 1410 1407 1405 1403 1401 1398 1396 1393 1391 1389 1389 1387 1385 1383 1382 1381 1380 1380 1379 1379 1379 1379 1379 1379 1379 1379 1379 1379 1378 1378 1378 1377 1377 1377 1377 1377
1425 1422 1420 1417 1415 1412 1409 1407 1404 1402 1400 1398 1395 1394 1391 1389 1387 1385 1383 1381 1379 1378 1377 1375 1374 1374 1374 1374 1373 1373 1373 1373 1373 1373 1373 1373 1372 1372 1371 1371 1372 1372 1371
1422 1419 1417 1414 1412 1409 1406 1403 1400 1398 1396 1394 1391 1389 1388 1385 1383 1381 1379 1377 1375 1374 1372 1371 1370 1369 1369 1369 1369 1368 1368 1368 1368 1368 1367 1367 1367 1366 1366 1366 1366 1366 1366
1419 1416 1414 1411 1409 1406 1403 1401 1398 1395 1392 1389 1388 1386 1384 1382 1380 1378 1376 1374 1371 1370 1369 1367 1366 1365 1365 1365 1364 1364 1363 1363 1363 1362 1362 1362 1362 1362 1361 1361 1361 1361 1361
1415 1413 1411 1408 1405 1403 1400 1398 1396 1393 1390 1387 1385 1383 1381 1379 1377 1375 1373 1371 1368 1367 1366 1364 1363 1362 1362 1361 1360 1360 1359 1359 1358 1357 1357 1357 1357 1357 1357 1357 1358 1358 1359
1412 1409 1407 1404 1402 1399 1397 1395 1392 1390 1387 1385 1382 1380 1378 1376 1374 1372 1371 1369 1367 1365 1363 1362 1361 1360 1359 1358 1357 1356 1356 1355 1354 1353 1353 1353 1353 1354 1354 1354 1354 1355 1355
1408 1406 1403 1401 1398 1396 1393 1391 1389 1387 1384 1382 1380 1378 1376 1374 1372 1370 1368 1366 1365 1363 1361 1360 1358 1357 1356 1355 1354 1353 1352 1351 1351 1350 1350 1350 1350 1350 1350 1350 1351 1352 1352
1404 1402 1399 1397 1395 1392 1390 1388 1386 1384 1381 1379 1377 1375 1373 1371 1369 1367 1365 1364 1362 1360 1359 1357 1356 1354 1353 1352 1351 1350 1349 1348 1348 1348 1347 1347 1347 1348 1348 1348 1348 1349 1350
1401 1398 1396 1393 1391 1389 1387 1384 1382 1380 1378 1376 1374 1372 1370 1368 1366 1364 1363 1361 1360 1358 1356 1355 1353 1352 1351 1350 1348 1347 1347 1346 1346 1346 1345 1345 1345 1345 1345 1345 1346 1346 1347
1397 1394 1392 1390 1387 1385 1383 1381 1379 1377 1375 1373 1371 1369 1367 1365 1364 1362 1360 1359 1357 1355 1354 1352 1350 1349 1348 1347 1346 1345 1344 1344 1343 1343 1343 1343 1342 1343 1343 1343 1343 1344 1344
1394 1391 1388 1386 1384 1381 1379 1377 1375 1373 1371 1369 1367 1365 1364 1362 1361 1359 1358 1356 1354 1353 1351 1349 1348 1347 1345 1344 1343 1342 1341 1341 1341 1340 1340 1340 1340 1341 1341 1341 1342 1342 1343
1390 1388 1385 1383 1380 1378 1376 1374 1372 1370 1368 1366 1364 1362 1361 1359 1358 1356 1355 1353 1351 1350 1348 1347 1346 1344 1343 1342 1341 1340 1339 1338 1338 1337 1338 1338 1338 1338 1339 1339 1339 1340 1340